Location: Ferchesar
(52.6477°N, 12.4298°E)
Time: 16:42:49
(UTC+01:00)

Vanguard 3 - Pass Details

Date: 15 December 2021
Orbit: 508 x 3260 km, 33.3° (Epoch: 22 January)

Event Time Altitude Azimuth Distance (km) Brightness Sun altitude
Rises 07:00:37 0° 273° (W) 7,139 - -10.4°
Exits shadow 07:02:50 - 269° (W) 6,818 11.3 -10.1°
Reaches altitude 10° 07:07:29 10° 259° (W) 6,201 11.2 -9.5°
Maximum altitude 07:19:00 19° 223° (SW) 5,217 11.1 -7.9°
Drops below altitude 10° 07:29:18 10° 185° (S) 5,430 11.7 -6.6°
Sets 07:34:46 0° 170° (S) 6,005 12.3 -5.9°
